Location: downtown San Diego
(32.7310°N, 117.1990°W)
Time: 07:41:18
(UTC-08:00)

COSMOS 2455 - Visible Passes

Search period start: 17 November 2019 00:00
Search period end: 27 November 2019 00:00
Orbit: 901 x 909 km, 67.1° (Epoch: 17 November)

Date Brightness Start Highest point End Pass type
(mag) Time Alt. Az. Time Alt. Az. Time Alt. Az.
17 Nov 5.4 03:35:03 10° NNE 03:37:28 12° NE 03:39:51 10° ENE visible
17 Nov 2.9 05:18:12 10° NNW 05:24:14 85° ENE 05:30:13 10° SSE visible
17 Nov 3.7 18:31:44 10° S 18:35:50 32° SE 18:35:50 32° SE visible
17 Nov 5.3 20:17:45 10° WSW 20:19:03 16° WSW 20:19:03 16° WSW visible
18 Nov 5.2 03:37:57 10° N 03:41:47 17° NE 03:45:35 10° E visible
18 Nov 2.8 05:22:14 10° NNW 05:28:13 69° WSW 05:34:09 10° SSE visible
18 Nov 3.0 18:35:16 10° S 18:40:55 50° ESE 18:40:55 50° ESE visible
18 Nov 5.3 20:22:34 10° WSW 20:24:08 16° W 20:24:08 16° W visible
19 Nov 4.8 03:42:44 15° NNE 03:46:02 23° NE 03:50:41 10° ESE visible
19 Nov 3.1 05:26:24 10° NW 05:32:10 48° WSW 05:37:53 10° S visible
19 Nov 2.7 18:39:01 10° SSW 18:44:59 71° ESE 18:45:57 60° ENE visible
19 Nov 5.5 20:27:44 10° W 20:29:09 14° WNW 20:29:09 14° WNW visible
20 Nov 4.3 03:47:36 23° NNE 03:50:13 31° ENE 03:55:29 10° ESE visible
20 Nov 3.5 05:30:49 10° NW 05:36:04 34° WSW 05:41:21 10° S visible
20 Nov 2.8 18:42:57 10° SSW 18:48:58 83° WNW 18:50:54 46° NNE visible
20 Nov 5.6 20:33:32 10° WNW 20:34:07 11° WNW 20:34:07 11° WNW visible
21 Nov 3.8 03:52:34 34° NNE 03:54:22 43° ENE 04:00:01 10° SE visible
21 Nov 3.9 05:35:47 12° WNW 05:39:56 24° WSW 05:44:33 10° SSW visible
21 Nov 3.3 18:47:06 10° SW 18:53:00 59° WNW 18:55:46 32° N visible
22 Nov 3.2 03:57:36 55° NNE 03:58:26 60° ENE 04:04:21 10° SE visible
22 Nov 4.3 05:40:49 12° WNW 05:43:45 16° WSW 05:47:19 10° SW visible
22 Nov 4.0 17:06:48 10° SSE 17:11:30 24° ESE 17:16:13 10° NE visible
22 Nov 3.9 18:51:25 10° SW 18:57:06 42° WNW 19:00:33 22° N visible
23 Nov 2.8 04:02:41 82° ESE 04:02:41 82° ESE 04:08:28 10° SSE visible
23 Nov 4.6 05:46:25 10° W 05:47:33 11° W 05:48:41 10° WSW visible
23 Nov 3.5 17:10:01 10° S 17:15:22 35° ESE 17:20:45 10° NE visible
23 Nov 4.4 18:55:59 10° WSW 19:01:14 31° WNW 19:05:13 16° N visible
24 Nov 3.2 04:07:47 53° S 04:07:47 53° S 04:12:24 10° SSE visible
24 Nov 3.1 17:13:31 10° S 17:19:16 49° ESE 17:25:04 10° NE visible
24 Nov 4.9 19:00:47 10° WSW 19:05:26 23° NW 19:09:47 11° N visible
25 Nov 3.9 04:12:53 31° SSW 04:12:53 31° SSW 04:16:08 10° S visible
25 Nov 2.9 17:17:16 10° SSW 17:23:14 71° ESE 17:29:13 10° NNE visible
25 Nov 5.2 19:05:56 10° W 19:09:41 17° NW 19:13:28 10° NNW visible
26 Nov 4.6 04:17:57 18° SSW 04:17:57 18° SSW 04:19:38 10° S visible
26 Nov 3.0 17:21:12 10° SSW 17:27:13 83° WNW 17:33:16 10° NNE visible
26 Nov 5.4 19:11:42 10° WNW 19:14:00 12° NW 19:16:19 10° NNW visible
